Location: Arrien
(43.3167°N, 0.1500°W)
Time: 16:36:25
(UTC+00:00)

Cosmos 1544 Rocket - Pass Details

Date: 30 May 2022
Orbit: 603 x 631 km, 82.5° (Epoch: 29 June)

Event Time Altitude Azimuth Distance (km) Brightness Sun altitude
Rises 02:12:08 0° 339° (NNW) 2,905 7.5 -18.0°
Reaches altitude 10° 02:14:39 10° 327° (NNW) 1,989 6.4 -17.8°
Maximum altitude 02:18:15 25° 272° (W) 1,241 4.8 -17.4°
Enters shadow 02:18:50 24° 259° (WSW) 1,264 4.7 -17.3°
